Wind_Speed
8 5 4 4 5 7 9 11 13 15 17 19 20 22 23 25 26 27 28 30 32 32 34 34 35 37 38 39 39 40 40 40 40 40 40 41 41 41 41 40 40 40 40 41
8 7 6 5 6 6 8 10 11 13 15 16 18 20 22 24 25 26 28 29 31 32 33 34 35 35 36 37 38 39 40 41 41 41 41 41 41 41 41 41 41 41 40 40
9 8 7 7 6 7 7 9 10 11 12 15 16 17 19 21 23 25 26 27 28 30 31 32 33 34 35 36 37 38 39 40 40 41 41 41 41 42 41 40 40 41 41 41
9 9 8 8 7 7 7 8 9 10 11 12 14 16 17 20 22 24 25 26 27 29 30 31 32 33 33 34 35 37 37 38 39 40 40 40 40 40 40 40 40 40 40 40
11 10 9 9 9 8 8 8 9 9 10 11 12 14 15 17 19 21 23 24 25 27 29 30 30 31 32 32 33 34 35 36 37 38 38 39 39 38 38 38 39 39 39 40
12 11 11 11 10 10 9 9 9 10 10 10 10 12 12 15 17 19 21 22 24 25 27 28 28 29 31 32 33 33 34 35 35 35 36 37 37 38 38 37 38 38 39 39
13 12 12 12 11 10 10 10 10 10 10 10 10 11 11 13 15 17 19 20 21 23 24 26 27 27 28 30 32 32 32 33 34 34 35 36 37 38 38 38 38 39 39 39
14 13 12 12 11 11 11 11 11 11 10 10 10 11 12 13 15 16 17 19 20 22 23 25 26 27 28 29 30 31 32 32 32 33 33 34 36 37 37 38 39 39 39 40
15 14 13 12 12 12 12 12 12 12 11 11 11 12 13 14 15 16 17 18 19 20 22 23 24 25 26 28 29 29 30 31 32 32 31 32 33 34 35 37 38 38 38 39
16 15 14 14 13 14 14 14 14 14 14 13 13 13 14 15 16 16 17 18 19 20 20 21 22 23 24 25 26 27 27 29 30 31 32 32 33 33 34 35 35 36 37 37
17 16 16 16 15 16 16 15 16 16 17 17 16 16 16 17 16 17 18 19 19 20 20 20 21 22 23 23 25 25 27 28 29 29 30 31 31 31 32 33 35 36 36 36
19 18 18 17 17 17 17 18 18 19 20 20 20 19 19 18 18 19 20 21 21 21 22 22 22 23 23 23 24 26 26 27 28 29 29 30 31 32 32 32 33 34 35 35
21 21 21 20 19 19 19 19 19 20 21 21 21 19 20 20 20 20 20 21 22 23 23 23 23 23 24 24 24 25 25 26 26 27 28 28 29 29 30 31 32 32 33 34
24 23 23 23 22 22 21 20 20 21 21 21 20 19 20 21 21 21 21 22 23 23 23 23 23 23 24 24 24 24 24 24 25 26 26 27 27 28 28 29 30 30 31 32
26 25 25 25 24 24 23 22 22 22 22 23 22 22 21 23 23 23 23 23 23 24 23 23 23 23 23 23 24 23 23 24 24 25 25 26 27 27 27 28 28 29 29 30
29 29 28 27 26 25 25 24 25 25 25 25 25 24 23 24 25 25 25 25 24 23 24 25 25 24 24 24 24 24 24 24 24 24 25 25 26 26 27 27 27 27 28 29
31 31 30 29 28 28 27 26 26 26 26 27 27 26 26 26 27 27 27 26 26 25 25 26 26 26 25 26 25 25 25 24 25 25 25 26 26 26 26 27 27 27 27 28
33 32 33 32 32 32 29 28 28 28 28 29 29 29 30 29 28 28 28 27 27 27 28 27 27 27 27 27 27 27 27 27 27 26 26 26 26 26 25 25 26 26 26 27
34 34 34 34 34 34 31 30 30 31 30 30 31 31 32 31 31 30 29 29 28 28 28 29 29 29 29 29 28 28 28 28 28 27 27 27 27 27 26 26 26 26 26 26
37 36 37 36 36 35 33 33 33 34 33 31 32 33 33 32 32 31 30 30 30 30 30 30 30 30 30 30 29 28 28 28 28 27 27 27 26 26 27 26 26 27 27 27
38 38 38 38 38 37 35 35 35 35 35 35 35 34 34 34 34 33 32 32 31 31 31 31 31 31 31 31 31 30 29 29 30 29 28 28 27 27 27 27 27 27 28 28
40 40 39 40 40 39 37 38 38 39 39 39 38 38 37 37 36 35 35 34 33 32 32 32 32 32 32 32 32 31 31 31 31 30 30 29 28 28 29 29 28 28 29 29
43 42 43 43 42 41 41 41 42 42 42 41 40 40 40 40 39 38 37 36 35 34 33 34 34 33 33 34 33 32 31 31 31 31 30 30 29 29 29 30 29 29 30 31
47 45 45 45 44 43 44 45 45 45 44 43 42 41 41 41 41 40 39 38 37 36 35 36 36 35 34 34 34 34 33 32 32 31 31 31 30 30 30 31 31 32 32 32
47 46 46 46 45 46 46 47 47 47 47 45 44 43 43 42 41 41 41 40 39 38 37 37 38 37 36 36 36 36 35 34 33 33 33 33 33 33 32 32 32 33 33 33
46 46 47 47 46 49 48 47 48 48 46 46 46 45 44 44 43 42 42 41 40 40 39 39 39 39 38 37 37 37 37 36 35 34 35 35 34 34 34 33 33 34 35 35
Wind_Direction
1 351 325 301 284 268 259 252 250 249 248 247 244 243 242 241 241 242 242 243 245 247 248 248 249 250 251 251 251 251 252 253 254 255 255 255 255 256 257 257 256 255 256 256
357 354 343 324 305 288 277 268 262 256 254 251 248 247 245 244 244 245 246 247 249 250 251 251 251 252 253 253 253 252 253 254 255 255 255 255 255 256 258 258 257 257 258 257
348 344 342 336 322 303 291 283 277 269 259 256 253 249 248 248 249 249 251 252 252 252 252 253 253 253 254 254 254 254 254 255 255 255 256 255 255 256 257 258 258 257 257 257
351 345 339 335 330 315 300 292 283 277 269 262 257 254 250 252 255 254 254 255 255 255 255 254 254 254 254 254 254 254 254 255 254 255 256 255 255 255 255 256 257 257 257 258
349 346 340 334 330 324 314 302 292 287 281 272 263 260 254 255 256 256 257 258 258 257 255 254 255 255 254 254 253 254 255 254 254 254 255 254 254 254 255 256 257 256 256 256
337 336 334 331 326 323 318 310 301 294 288 281 271 266 261 258 258 259 261 261 260 258 256 256 257 257 255 254 254 255 254 253 253 254 254 254 254 254 255 256 257 256 257 256
332 331 330 327 321 316 314 313 308 302 293 286 278 274 270 266 264 263 264 263 261 260 259 258 260 259 258 257 256 256 254 253 254 254 255 255 255 254 255 255 256 257 257 256
330 329 327 326 321 316 312 310 308 303 297 288 281 279 275 271 270 268 267 266 264 262 262 262 262 260 259 258 257 256 254 254 254 255 256 255 255 255 254 255 256 256 256 256
328 325 324 321 319 315 310 305 302 299 297 293 287 283 280 277 274 272 269 268 267 266 264 263 263 262 261 259 258 258 257 256 255 255 256 256 256 256 256 256 257 256 256 256
328 323 318 314 312 309 305 302 297 295 294 291 288 286 283 281 276 273 269 266 267 267 268 266 265 265 264 261 258 258 257 257 257 257 257 258 259 258 257 256 256 256 256 257
324 321 317 312 307 304 301 296 292 290 289 289 286 287 285 281 278 273 269 268 269 269 268 269 269 268 267 265 263 262 260 259 258 259 259 260 261 261 260 259 258 257 257 256
316 314 312 310 307 304 300 296 293 290 287 286 286 288 285 282 279 276 274 272 271 270 269 270 271 269 269 268 266 265 264 262 260 260 261 263 263 263 263 262 261 260 259 258
308 307 307 305 303 300 297 296 294 290 287 285 286 288 286 283 280 279 278 276 274 272 271 270 270 270 269 268 268 267 265 262 262 262 263 263 263 263 263 263 262 262 261 259
302 302 301 301 300 297 294 291 291 291 290 288 287 285 282 282 281 279 279 280 277 275 273 271 271 270 270 269 270 269 266 264 263 264 264 264 265 265 265 264 262 262 261 260
298 297 296 295 295 293 292 291 290 290 291 289 287 282 279 281 282 282 282 282 279 275 273 272 272 270 269 270 269 269 268 266 266 266 266 266 267 267 267 266 265 264 262 261
295 294 292 292 291 290 289 290 289 289 289 288 286 283 281 278 277 279 281 281 280 276 273 273 274 273 271 270 270 268 268 267 267 267 267 268 269 268 267 266 265 265 264 263
292 291 290 289 289 288 289 290 288 288 287 285 285 284 282 279 277 277 278 278 278 276 274 274 275 275 272 271 270 269 268 267 267 269 269 270 270 268 267 265 265 264 263 262
290 288 287 287 286 286 289 289 287 286 285 285 284 282 282 280 279 278 278 278 276 274 274 274 275 275 273 271 270 269 267 266 266 268 270 270 269 268 267 266 266 265 263 261
287 286 285 285 285 285 286 287 286 285 286 285 282 281 281 280 279 279 278 277 277 274 273 274 274 274 274 272 270 269 267 266 266 266 269 270 269 267 266 266 266 264 262 261
285 284 283 284 284 284 285 285 284 283 284 283 281 281 280 279 278 278 278 276 277 276 274 273 273 273 273 272 271 270 268 266 265 266 268 269 268 266 266 266 265 264 263 263
282 282 281 281 281 282 284 284 283 283 283 281 280 280 278 278 279 279 278 277 277 276 274 273 272 272 272 272 270 269 267 266 265 266 268 269 268 267 266 265 264 264 264 264
280 280 280 279 279 282 281 281 280 279 279 280 279 279 279 279 280 281 281 279 278 277 274 273 272 271 271 271 270 268 266 265 264 265 266 267 267 266 266 265 265 265 264 264
279 280 279 278 279 279 279 278 278 278 277 278 279 279 279 279 280 280 281 280 279 277 275 273 271 271 271 270 269 267 265 264 264 264 265 265 264 264 265 265 264 264 265 265
279 279 279 279 279 278 276 276 276 276 277 277 278 278 278 279 279 279 279 279 279 277 274 272 271 270 270 269 268 266 264 263 264 264 264 265 265 265 265 265 264 265 265 266
280 281 280 280 279 276 275 275 274 274 276 277 278 278 278 279 279 279 279 278 277 276 274 271 270 269 268 267 267 265 263 262 263 263 262 263 264 265 265 265 265 265 265 265
281 281 280 279 277 275 275 274 273 274 276 277 277 276 277 278 279 278 278 277 275 274 273 271 270 269 267 265 264 263 263 262 262 263 262 262 263 264 264 265 265 266 265 264
Height
5715 5715 5714 5714 5714 5714 5714 5715 5715 5716 5716 5717 5719 5721 5723 5724 5726 5729 5730 5732 5734 5735 5736 5737 5739 5740 5740 5741 5743 5744 5745 5747 5748 5749 5751 5752 5754 5754 5755 5756 5758 5759 5761 5763
5717 5716 5715 5714 5714 5713 5713 5713 5713 5713 5713 5714 5715 5717 5718 5720 5722 5723 5725 5726 5727 5728 5729 5730 5731 5732 5732 5733 5734 5735 5737 5738 5739 5741 5742 5743 5744 5745 5747 5748 5749 5750 5752 5754
5718 5717 5715 5714 5713 5712 5712 5712 5711 5711 5710 5710 5712 5713 5715 5716 5717 5718 5719 5720 5721 5721 5722 5723 5723 5724 5724 5725 5726 5727 5728 5729 5730 5731 5733 5734 5735 5737 5738 5739 5740 5742 5743 5744
5718 5716 5715 5714 5712 5711 5711 5710 5709 5708 5708 5708 5709 5709 5711 5711 5712 5713 5713 5714 5714 5715 5715 5715 5716 5716 5716 5717 5717 5718 5719 5720 5721 5722 5724 5725 5726 5728 5729 5730 5731 5733 5734 5735
5718 5716 5715 5713 5712 5711 5710 5709 5708 5707 5706 5706 5706 5706 5708 5707 5707 5707 5707 5708 5708 5708 5708 5708 5708 5708 5709 5709 5709 5710 5710 5711 5713 5714 5715 5716 5718 5719 5720 5722 5723 5724 5725 5726
5718 5716 5714 5712 5711 5709 5708 5708 5706 5705 5704 5705 5703 5703 5704 5702 5702 5702 5702 5702 5701 5701 5701 5701 5701 5701 5701 5701 5702 5702 5703 5703 5704 5705 5707 5708 5709 5711 5712 5713 5714 5715 5716 5717
5717 5715 5712 5711 5709 5708 5707 5706 5705 5703 5702 5702 5700 5699 5700 5698 5698 5697 5697 5696 5696 5695 5694 5694 5694 5693 5694 5694 5694 5695 5695 5696 5697 5698 5699 5700 5701 5702 5703 5704 5705 5706 5707 5708
5714 5713 5711 5709 5707 5706 5704 5703 5703 5701 5700 5699 5697 5696 5697 5695 5693 5692 5692 5691 5690 5689 5688 5687 5687 5686 5686 5686 5687 5687 5688 5688 5689 5690 5691 5691 5692 5693 5694 5696 5696 5697 5698 5699
5712 5710 5708 5706 5704 5703 5701 5700 5699 5698 5696 5695 5694 5693 5692 5690 5689 5688 5687 5686 5684 5683 5682 5681 5680 5680 5679 5679 5679 5680 5680 5681 5681 5682 5683 5683 5684 5685 5686 5686 5687 5688 5689 5690
5709 5707 5705 5703 5702 5700 5699 5697 5695 5694 5692 5690 5690 5689 5688 5685 5684 5683 5682 5680 5679 5678 5677 5675 5674 5673 5673 5672 5672 5672 5672 5673 5673 5674 5674 5675 5676 5676 5677 5677 5678 5679 5680 5680
5705 5704 5702 5700 5698 5696 5694 5693 5690 5689 5687 5686 5684 5686 5683 5680 5679 5677 5676 5675 5673 5672 5671 5670 5668 5667 5666 5666 5666 5666 5665 5666 5666 5666 5666 5667 5667 5667 5668 5668 5669 5670 5670 5671
5701 5700 5698 5696 5694 5691 5689 5688 5686 5685 5683 5680 5678 5681 5677 5675 5673 5671 5670 5668 5667 5666 5665 5664 5662 5661 5660 5659 5659 5659 5658 5658 5658 5658 5659 5659 5659 5659 5659 5659 5660 5660 5661 5662
5697 5695 5692 5691 5691 5688 5685 5682 5680 5678 5676 5674 5673 5676 5670 5668 5666 5665 5663 5662 5660 5659 5658 5657 5656 5654 5653 5652 5652 5651 5651 5651 5651 5651 5651 5651 5651 5651 5651 5651 5651 5651 5652 5653
5690 5689 5687 5686 5683 5680 5679 5677 5675 5672 5670 5668 5668 5667 5665 5661 5659 5658 5656 5654 5653 5652 5650 5649 5648 5648 5647 5646 5645 5644 5644 5644 5644 5644 5644 5644 5644 5643 5643 5643 5643 5643 5643 5644
5683 5682 5680 5678 5676 5674 5672 5671 5668 5666 5664 5661 5661 5659 5658 5654 5652 5650 5649 5647 5645 5644 5643 5642 5641 5640 5640 5639 5638 5637 5637 5637 5637 5637 5636 5636 5636 5636 5635 5635 5635 5635 5635 5635
5676 5674 5672 5671 5669 5666 5665 5664 5661 5659 5656 5654 5652 5651 5649 5647 5645 5643 5642 5640 5638 5637 5636 5635 5634 5633 5632 5631 5631 5630 5630 5629 5629 5629 5629 5629 5628 5628 5627 5627 5627 5627 5627 5627
5668 5665 5663 5662 5660 5658 5658 5657 5653 5651 5648 5646 5643 5643 5640 5638 5636 5635 5634 5632 5631 5630 5628 5627 5626 5626 5625 5624 5623 5623 5622 5622 5622 5622 5622 5621 5621 5620 5620 5619 5619 5619 5619 5620
5659 5656 5653 5652 5651 5649 5651 5647 5644 5642 5640 5637 5635 5633 5631 5629 5628 5626 5625 5624 5623 5621 5620 5619 5618 5617 5616 5616 5615 5615 5615 5614 5614 5614 5614 5613 5613 5612 5612 5612 5611 5611 5611 5612
5649 5646 5644 5642 5640 5639 5641 5638 5634 5632 5631 5628 5625 5623 5622 5620 5619 5618 5616 5615 5614 5613 5612 5610 5610 5609 5608 5607 5607 5607 5607 5606 5606 5606 5606 5605 5604 5604 5604 5604 5604 5603 5604 5604
5638 5636 5635 5632 5629 5628 5631 5627 5623 5622 5620 5618 5615 5613 5612 5610 5609 5609 5607 5606 5604 5603 5602 5601 5601 5600 5599 5598 5598 5598 5598 5598 5598 5597 5597 5597 5596 5596 5596 5596 5596 5596 5596 5596
5627 5624 5623 5620 5617 5617 5619 5615 5612 5611 5610 5606 5604 5602 5601 5599 5599 5599 5597 5596 5595 5594 5592 5591 5591 5591 5590 5589 5589 5589 5589 5588 5588 5588 5589 5589 5588 5588 5588 5588 5588 5588 5588 5588
5614 5613 5611 5608 5606 5609 5606 5603 5601 5599 5596 5594 5592 5591 5590 5589 5588 5587 5587 5586 5585 5584 5583 5582 5581 5581 5580 5579 5579 5579 5579 5579 5579 5579 5580 5580 5580 5580 5580 5580 5580 5580 5580 5580
5601 5601 5598 5597 5597 5595 5592 5589 5587 5584 5583 5582 5581 5580 5578 5577 5576 5576 5575 5575 5574 5573 5572 5571 5570 5570 5570 5569 5568 5569 5569 5569 5570 5570 5570 5570 5570 5571 5571 5571 5571 5571 5571 5571
5587 5586 5583 5582 5583 5581 5578 5575 5573 5571 5569 5569 5568 5567 5566 5565 5564 5563 5562 5562 5561 5561 5560 5559 5559 5559 5559 5558 5558 5558 5558 5559 5560 5560 5561 5561 5561 5561 5561 5561 5561 5562 5562 5562
5573 5571 5568 5567 5568 5565 5564 5561 5559 5557 5556 5555 5554 5553 5552 5551 5551 5550 5549 5549 5549 5548 5547 5547 5546 5546 5547 5546 5546 5546 5547 5548 5549 5550 5550 5550 5551 5551 5551 5551 5551 5551 5552 5552
5560 5557 5553 5551 5551 5547 5548 5547 5544 5543 5542 5541 5540 5540 5539 5537 5537 5536 5536 5535 5535 5534 5534 5534 5533 5533 5533 5533 5534 5535 5535 5536 5538 5538 5539 5540 5540 5540 5540 5540 5541 5540 5541 5541